Regional Weather Roundup
Issued by NWS Jackson, KY

Home | Current Version | Previous Version | Graphics & Text | Print | Product List | Glossary On
Versions: 1 2 3 4 5 6 7 8 9 10 11 12 13 14 15 16 17 18 19 20 21 22 23 24 25 26 27 28 29 30 31 32 33 34 35 36 37 38 39 40 41 42 43 44 45 46 47 48 49 50
000
ASUS43 KJKL 202005
RWRJKL

EAST KENTUCKY HOURLY WEATHER ROUNDUP
NATIONAL WEATHER SERVICE JACKSON KY
400 PM EDT MON OCT 20 2014

NOTE: "FAIR" INDICATES FEW OR NO CLOUDS BELOW 12,000 FEET WITH
NO SIGNIFICANT WEATHER AND/OR OBSTRUCTIONS TO VISIBILITY.

* THESE REPORTS ARE NOT UNDER NWS QUALITY CONTROL AND MAY NOT
  REPORT WEATHER SUCH AS PRECIPITATION AND FOG.

KYZ079-080-083-085-087-088-110-112-115-119-120-202100
...EASTERN KENTUCKY...

CITY           SKY/WX    TMP DP  RH WIND       PRES   REMARKS
JACKSON        CLOUDY    57  49  74 CALM      29.97F
LONDON         CLOUDY    63  49  60 W7        29.97F
SOMERSET*      CLOUDY    61  48  63 SW10      29.99S
MONTICELLO*    PTSUNNY   63  50  62 SW9       30.00F
WILLIAMSBURG*  SUNNY     64  50  59 CALM      29.98R
MIDDLESBORO*   CLOUDY    63  49  61 S6        29.98F
HARLAN APT*    CLOUDY    61  45  55 CALM      29.97F
BLACK MTN*       N/A     48  43  81 SW6         N/A
PIKEVILLE APT* MOSUNNY   55  50  82 CALM      29.96F
BIG SANDY*     CLOUDY    58  48  69 SW3       29.96F
MOREHEAD APT*  MOCLDY    59  46  63 S15       29.95F
$$

KYZ035-036-041-042-044-050-067-078-099-202100
...CENTRAL KENTUCKY...

CITY           SKY/WX    TMP DP  RH WIND       PRES   REMARKS
MT STERLING*   PTSUNNY   59  48  67 SW15      29.94F
FLEMING/MASON* CLOUDY    58  46  63 SW12G23   29.91F
DANVILLE*      CLOUDY    61  46  59 SW15G22   29.95F
RICHMOND*      CLOUDY    59  46  63 SW14      29.95F
LEXINGTON      CLOUDY    63  48  58 SW17      29.92F
FRANKFORT      PTSUNNY   63  49  60 SW14G25   29.90F
$$

KYZ091>093-OHZ055-061-077-WVZ005-015-034-035-042-202100
...SOUTHERN OHIO/WEST VIRGINIA...

CITY           SKY/WX    TMP DP  RH WIND       PRES   REMARKS
COVINGTON      LGT RAIN  62  47  57 SW13      29.87R
COLUMBUS       LGT RAIN  59  44  57 SW12      29.86S
DAYTON         CLOUDY    56  53  90 SW9       29.86S
WILMINGTON     RAIN      57  47  69 SW14      29.86S
HUNTINGTON     CLOUDY    58  46  64 S10G17    29.93F
CHARLESTON     CLOUDY    59  47  64 SW5       29.94F
PINEVILLE*     LGT RAIN  59  54  83 MISG      30.02S
BECKLEY        CLOUDY    57  42  57 S8        29.97F
BLUEFIELD      CLOUDY    59  38  45 W9        30.00F
$$

VAZ002-007-008-TNZ017-027-036-066-071-202100
...SOUTHWEST VIRGINIA/EAST TENNESSEE...

CITY           SKY/WX    TMP DP  RH WIND       PRES   REMARKS
WISE*          LGT RAIN  55  43  62 SW8       30.02F
JONESVILLE*    CLOUDY    63  46  55 SW9       30.02S
ABINGDON*      CLOUDY    62  46  54 W9        30.01F
BRISTOL        CLOUDY    63  47  55 W6        30.01S
KNOXVILLE      CLOUDY    65  50  58 W7        29.99F
OAK RIDGE      CLOUDY    66  48  52 SW7       30.01F
CROSSVILLE     CLOUDY    62  47  57 W7        30.02F
NASHVILLE      PTSUNNY   67  47  48 SW5       30.00F
$$

...KEY TO REMARKS...
VSB - VISIBILITY IN MILES
WCI - WIND CHILL INDEX
HX  - HEAT INDEX

$$



USA.gov is the U.S. government's official web portal to all federal, state and local government web resources and services.